星链-37482(STARLINK-37482)

导读

STARLINK-37482(NORAD编号68850)是美国SpaceX公司星链(Starlink)互联网星座中的一颗低轨卫星。星链计划旨在构建覆盖全球的低轨天基通信系统,为全球提供高速低延迟的互联网接入服务,该系统总计规划近4.2万颗卫星,部署于不同高度的近地轨道。STARLINK-37482作为星链组网卫星之一,运行在近地轨道,参与完成全球网络覆盖,为地面用户提供天基互联网服务,是SpaceX持续推进星链星座组网建设的组成部分。

Basic Information
目录编号:
68850
目录名称:
STARLINK-37482
国际标识:
2026-094M
轨道中心:
EARTH
卫星名称:
星链-37482
卫星全名:
星链-37482(STARLINK-37482)
卫星状态:
在轨 (已飞行131 天)
发射日期:
2026-04-26 UTC
国别 :
美国 (US)
星等 :
--
Orbit Information
数据来源 国际轨道数据
星历时间: 2026-09-04T03:59:23+0800
8小时前
查看轨道信息
半长轴: 6843.69km
偏心率: 0.0002157
轨道倾角: 97.282°
近地点辐角 106.007°
升交点赤经 260.194°
平近点角 254.141°
近地点: 464.076km
远地点: 467.03km
周期: 93.906分钟
每日圈数: 15.33442
Detailed Information
固有亮度:
5
最大亮度:
2.5
卫星平台:
Starlink V1.0
覆盖范围:
全球
运营商:
太空探索技术公司
运营商所在国:
美国
制造商(研发单位):
太空探索技术公司
制造商所在国:
美国
使用方式:
暂无
Satellite Introduction
Starlink 计划是 SpaceX 推出的全球卫星互联网项目,通过发射低轨道卫星,为全球尤其是偏远地区提供高速、低延迟的互联网服务。自 2019 年起,Starlink 已部署数千颗卫星,旨在缩小全球数字鸿沟,推动互联网普及。该项目还为军事、航空等行业提供通信支持,带来广泛经济效益。
2D Orbit Map
3D Orbit Map
Orbit Altitude Analysis Chart
Orbit Inclination Analysis Chart
Orbit Comprehensive Analysis Chart
View Comprehensive Chart
Conjunction Data List
Event ID Objects TCA Miss Dist (km) Collision Risk Probability Collision Risk Index (CRI) Action
CDM_260905-053904-521206-885021
2026-09-05T
05:39:06+0000
1.723 km
极远距离
2.351926E-6 低风险 0.42
CDM_260905-024205-175306-885021
2026-09-05T
02:42:41+0000
2.691 km
极远距离
1.09519E-6 低风险 0.36